Regional Weather Roundup
Issued by NWS Mt. Holly, NJ

Home | Current Version | Previous Version | Text Only | Print | Product List | Glossary On
Versions: 1 2 3 4 5 6 7 8 9 10 11 12 13 14 15 16 17 18 19 20 21 22 23 24 25 26 27 28 29 30 31 32 33 34 35 36 37 38 39 40 41 42 43 44 45 46 47 48 49 50
000
ASUS41 KPHI 221812
RWRPHI

REGIONAL WEATHER ROUNDUP
NATIONAL WEATHER SERVICE MOUNT HOLLY NJ
100 PM EST SUN JAN 22 2017

NOTE:  "FAIR" INDICATES FEW OR NO CLOUDS BELOW 12,000 FEET WITH NO
SIGNIFICANT WEATHER AND/OR OBSTRUCTIONS TO VISIBILITY.

 * = STATION DOES NOT REPORT PRECIPITATION (E.G. RAIN, SNOW, ETC.)
        OR FOG.

NJZ015>026-221900-
SOUTHERN NEW JERSEY

CITY           SKY/WX    TMP DP  RH WIND       PRES   REMARKS
POMONA         CLOUDY    49  47  93 NE9       29.64F FOG
6HR MIN TEMP:  45; 6HR MAX TEMP:  50; 6HR PCP:  0.01;

WILDWOOD*      CLOUDY    51  50  96 NE8       29.63F FOG
MILLVILLE      CLOUDY    49  49 100 NE9       29.64F
WRIGHTSTOWN    CLOUDY    48  48  99 N9        29.64F
MOUNT HOLLY    CLOUDY    48  47  96 N8        29.67F FOG
TRENTON        CLOUDY    48  47  96 NE7       29.67F FOG
6HR MIN TEMP:  44; 6HR MAX TEMP:  48;


$$
NJZ001>014-221900-
NORTHERN NEW JERSEY

CITY           SKY/WX    TMP DP  RH WIND       PRES   REMARKS
SUSSEX         CLOUDY    47  46  97 NE7       29.69F FOG
ANDOVER*         N/A     46  45  96 CALM      29.69F
MORRISTOWN     CLOUDY    46  46 100 CALM      29.71F FOG
NEWARK         CLOUDY    49  45  86 VRB3      29.69F FOG
TETERBORO      CLOUDY    48  44  86 E7        29.70F FOG
CALDWELL       CLOUDY    47  45  93 E7        29.71F FOG
SOMERVILLE     CLOUDY    49  45  86 NE5       29.67F
ALLAIRE*       CLOUDY    46  43  89 N7        29.68F
TOMS RIVER*    LGT RAIN  47  46  97 NE8       29.67F FOG

$$
PAZ043-044-047-054-055-060>062-066>071-221900-
EASTERN PENNSYLVANIA

CITY           SKY/WX    TMP DP  RH WIND       PRES   REMARKS
PHILADELPHIA   CLOUDY    50  47  89 NE6       29.66F
6HR MIN TEMP:  46; 6HR MAX TEMP:  50; 6HR PCP: TRACE;

NORTH PHILA    CLOUDY    50  48  93 N8        29.69F FOG
BLUE BELL*     CLOUDY    45  45 100 CALM      29.67F
DOYLESTOWN     CLOUDY    48  47  96 N5        29.67F
QUAKERTOWN*    CLOUDY    46  46 100 CALM      29.69F
PERKASIE*      FOG       46  46 100 NE5       29.69F VSB 3/4
POTTSTOWN      CLOUDY    45  45 100 N6        29.69F FOG
LANCASTER      CLOUDY    45  45 100 N6        29.66F FOG
COATESVILLE    CLOUDY    48  48 100 N6        29.66F FOG
READING        FOG       44  44 100 N5        29.68F VSB 1/2
6HR MIN TEMP:  41; 6HR MAX TEMP:  45;

ALLENTOWN      FOG       47  44  90 E5        29.69F VSB 1
6HR MIN TEMP:  42; 6HR MAX TEMP:  47;

MOUNT POCONO   FOG       46  45  96 E8        29.66F VSB 1/4
6HR MIN TEMP:  34; 6HR MAX TEMP:  48;

HAZLETON       CLOUDY    52  46  82 SE6       29.68F
LEHIGHTON        N/A     45  45 100 CALM      29.70F FOG
WILKES BARRE   CLOUDY    46  45  96 CALM      29.66F FOG

$$
DEZALL-MDZ008-012-015-019-020-221900-
DELAWARE AND EASTERN MARYLAND

CITY           SKY/WX    TMP DP  RH WIND       PRES   REMARKS
WILMINGTON     CLOUDY    50  49  96 N8        29.64F FOG
6HR MIN TEMP:  45; 6HR MAX TEMP:  51;

DOVER          CLOUDY    48  48 100 N8        29.62F
GEORGETOWN     FOG       49  48  97 N9        29.63F VSB 1/4
6HR MIN TEMP:  47; 6HR MAX TEMP:  49; 6HR PCP:  0.02;

EASTON         FOG       48  46  93 NE7       29.67  VSB 1
PATUXENT       DRIZZLE   45  45 100 N12       29.61F FOG
OCEAN CITY     FOG       49  49 100 N10       29.61R VSB 1/2
WALLOPS ISLAND FOG       52  52 100 N10       29.56F VSB 3/4
CAMBRIDGE      CLOUDY    46  46 100 N8        29.60F VSB 3/4
SALISBURY      FOG       50  50 100 NE14      29.59F VSB 1/4

$$
PAZ001-021-NYZ056-072-MDZ011-DCZ001-221900-
OTHER NEARBY LOCATIONS

CITY           SKY/WX    TMP DP  RH WIND       PRES   REMARKS
HARRISBURG     FOG       45  45 100 N3        29.65F VSB 1
STATE COLLEGE  FOG       41  41 100 CALM      29.66F VSB 1/8
WILLIAMSPORT   CLOUDY    44  41  89 CALM      29.66F
BINGHAMTON     MOSUNNY   50  46  86 VRB3      29.66F
NEW YORK CITY  CLOUDY    45  42  89 NE8       29.73F
BALTIMORE      CLOUDY    50  49  96 VRB6      29.64F
WASHINGTON DC  CLOUDY    50  48  93 N7        29.65F

$$



USA.gov is the U.S. government's official web portal to all federal, state and local government web resources and services.